Wind_Speed
52 54 54 54 51 48 46 45 45 45 46 47 49 50 50 50 51 51 50 49 49 49 50 48 44 46 47 45 46 47 47 46 47 48 48 49 50 51 52 53 55 57 60 63 65 66 69 72 72 72 74 75 78 79
53 53 53 50 48 47 47 48 49 50 52 54 54 55 56 57 56 55 54 52 49 47 46 47 49 48 47 51 54 53 53 54 54 55 54 54 56 57 59 59 60 59 61 61 63 64 68 71 72 73 75 78 78 81
49 48 49 48 49 50 51 53 54 56 58 60 61 63 64 62 59 58 56 53 48 44 45 49 53 53 55 56 56 56 55 53 52 55 57 55 55 54 53 54 56 57 59 61 63 64 65 67 71 74 76 80 81 82
49 49 49 50 52 54 57 59 61 64 64 62 60 57 55 52 49 48 47 46 44 43 44 47 48 48 47 44 43 42 41 41 42 42 42 43 45 46 48 51 54 57 59 60 62 64 63 65 67 70 69 70 72 74
49 52 55 56 59 62 62 61 59 58 55 52 49 46 44 43 41 40 39 37 37 37 38 37 40 41 41 39 37 36 37 37 38 39 40 42 44 44 47 48 49 49 51 52 53 55 57 59 63 66 68 70 73 75
55 59 61 60 57 55 53 51 49 47 46 43 41 40 38 35 31 26 22 22 21 23 30 33 34 32 32 33 33 36 37 37 38 37 35 33 32 35 37 39 41 43 46 50 51 53 55 58 61 65 66 67 68 70
58 55 52 50 48 46 45 42 39 37 34 30 26 21 17 13 10 9 9 8 8 9 11 13 14 16 18 19 18 19 22 24 24 26 26 26 26 28 30 32 34 37 41 44 47 48 49 52 53 54 55 55 55 56
50 46 43 41 38 34 31 27 22 18 16 17 18 16 20 22 22 25 21 16 21 23 15 10 13 14 14 16 17 18 20 21 22 21 20 20 22 25 28 32 34 36 37 40 43 44 41 38 38 39 41 42 42 43
38 34 30 26 21 16 14 14 15 15 15 20 21 26 33 35 36 37 36 33 30 27 29 31 29 31 32 31 30 28 25 23 23 22 23 22 25 29 32 34 33 34 36 37 36 34 33 35 36 37 38 39 39 39
22 18 14 13 13 13 17 18 19 26 35 40 39 38 39 39 36 35 35 35 33 36 40 41 40 37 36 34 33 30 29 30 29 30 28 29 31 32 36 38 38 39 40 41 39 33 31 31 33 34 35 36 36 36
11 12 15 17 19 26 30 35 37 39 42 41 36 33 33 33 31 31 33 35 37 37 38 37 37 37 36 36 35 36 37 38 39 37 36 37 38 38 38 40 42 43 43 43 43 42 38 36 34 33 33 35 35 35
19 24 31 35 36 36 36 38 37 39 36 30 27 27 29 32 35 36 37 38 37 37 35 34 34 34 34 34 37 39 41 42 43 43 43 43 42 41 42 42 43 44 45 46 45 43 41 38 35 33 34 33 34 35
38 37 37 37 37 36 35 31 29 31 26 25 26 30 35 37 37 37 38 39 38 35 32 32 30 31 34 36 38 41 41 42 43 44 46 47 47 47 47 47 47 47 48 48 47 46 44 43 40 37 34 34 35 35
35 37 38 38 37 34 33 31 31 31 27 28 30 33 36 38 37 37 36 35 34 32 30 28 29 32 35 38 38 41 41 42 44 45 46 47 48 49 50 50 50 49 49 49 49 49 47 45 43 41 39 37 34 34
41 40 38 37 38 35 35 35 31 27 28 32 35 39 39 37 36 35 34 33 31 30 28 28 29 34 37 39 40 42 42 41 43 44 45 47 48 49 50 51 51 51 51 51 51 51 51 50 48 47 45 43 40 37
42 39 37 38 37 38 34 31 28 30 33 36 40 40 38 36 37 34 33 32 32 32 29 29 34 38 38 38 38 39 39 41 41 42 44 46 47 48 49 50 52 53 53 54 55 54 53 54 53 51 49 47 46 44
37 35 35 36 36 34 31 26 27 36 38 42 42 40 38 36 35 35 35 34 34 34 35 36 38 38 37 38 39 38 38 37 38 39 40 42 45 47 50 51 52 53 55 55 55 57 57 57 57 55 52 51 49 48
35 36 34 33 32 28 28 30 37 41 41 41 38 37 35 35 35 35 35 35 34 35 35 37 37 37 37 37 37 37 37 37 37 38 39 41 42 45 48 50 52 54 55 56 57 57 58 58 58 57 58 55 52 50
36 33 34 34 31 27 32 41 41 42 42 39 38 36 36 35 34 34 34 35 35 34 35 38 39 37 36 35 35 36 36 36 36 36 37 39 41 42 44 47 50 52 55 56 58 58 58 59 60 60 60 61 59 56
33 32 33 34 33 32 37 40 40 41 40 38 37 37 35 34 33 34 34 34 35 35 37 38 38 36 36 37 36 35 35 35 35 36 37 37 38 41 42 43 46 49 52 55 57 59 60 60 61 62 62 63 63 62
33 32 32 34 32 33 37 39 39 38 37 38 37 36 35 35 34 34 35 34 33 34 36 36 36 36 37 37 36 37 36 36 35 35 35 36 36 38 40 42 44 46 49 52 54 58 60 62 63 63 63 63 65 66
30 31 32 31 30 35 38 37 37 37 37 37 37 37 36 35 36 36 35 37 39 39 39 38 38 38 38 38 37 37 37 37 37 37 37 37 37 37 38 40 41 43 45 49 52 54 57 60 63 64 66 66 66 67
30 31 27 28 34 36 37 36 35 36 36 37 37 37 38 38 38 38 41 43 43 43 42 42 43 40 38 38 38 39 39 40 40 39 38 37 37 38 38 39 40 41 42 45 48 51 54 57 60 63 65 67 67 67
28 26 29 33 34 34 34 35 36 37 38 38 38 38 38 38 39 41 43 44 45 45 45 45 44 44 44 42 39 38 38 39 40 41 40 38 37 38 38 39 40 40 41 43 44 47 50 53 56 58 61 64 66 68
23 27 30 32 32 32 33 35 37 37 38 40 40 40 40 41 43 44 45 45 45 45 45 44 46 47 46 46 45 43 41 38 37 37 38 39 37 37 37 38 39 40 40 41 43 44 46 49 52 55 57 60 62 65
25 27 30 30 30 32 34 35 36 38 39 40 41 41 42 44 46 47 48 48 48 48 48 48 47 46 47 46 45 43 43 41 38 37 36 36 37 37 38 37 37 38 40 40 41 42 43 45 48 50 53 56 58 61
25 27 28 29 31 33 34 35 37 39 39 40 42 42 43 46 47 47 47 46 47 49 50 50 49 49 47 44 43 42 42 41 40 39 39 39 38 38 38 38 38 37 38 39 40 40 42 43 45 47 49 51 53 55
25 26 27 29 31 32 33 34 36 39 40 41 43 46 49 50 51 51 49 47 47 47 49 48 46 47 48 47 44 42 41 40 40 40 40 40 39 37 37 37 37 38 38 37 38 39 40 41 43 44 45 47 49 51
23 24 27 29 30 30 33 36 39 43 45 46 47 48 49 49 47 47 45 44 46 48 49 48 48 48 46 45 46 47 44 42 40 38 38 38 38 38 36 35 35 36 37 38 38 38 38 38 39 41 43 44 45 47
23 25 27 28 30 33 36 39 42 44 45 47 48 50 50 50 50 50 47 47 47 48 50 52 51 50 49 47 44 45 45 44 42 41 39 38 36 36 35 35 34 34 34 35 36 37 38 38 39 40 41 42 44 45
23 25 26 28 32 35 37 40 42 44 46 47 48 49 49 49 49 49 47 47 49 50 51 49 50 51 51 49 48 45 44 44 43 43 42 40 40 39 39 38 36 35 35 35 35 35 36 37 37 38 39 40 41 42
23 25 28 30 33 35 37 39 44 46 46 47 48 48 50 50 50 49 49 49 49 49 51 52 52 51 50 50 50 50 50 48 47 46 44 41 38 37 37 37 37 36 36 37 38 38 38 37 38 38 38 39 40 40
24 26 27 28 30 34 38 42 45 45 48 50 50 50 50 50 49 49 50 50 50 50 52 52 52 52 52 50 48 47 46 47 48 46 43 42 41 38 35 34 35 34 34 35 37 38 38 39 39 40 41 41 41 41
Wind_Direction
298 300 303 303 302 299 297 295 293 293 292 292 291 290 289 287 287 286 285 283 281 279 280 281 279 278 280 281 280 278 279 276 277 276 275 276 275 276 275 275 274 272 270 271 271 272 270 274 275 274 274 274 274 274
303 304 304 302 300 297 296 295 294 294 294 293 293 291 289 288 287 284 282 279 277 275 274 274 275 273 271 273 273 276 275 275 274 274 272 274 273 274 275 274 273 270 271 271 270 272 273 274 274 273 273 273 273 274
303 304 303 300 298 297 297 296 297 297 296 295 293 292 290 288 286 282 279 274 270 268 265 266 267 268 265 270 271 273 274 274 274 272 273 274 275 275 274 272 273 272 272 272 273 273 274 275 275 276 276 277 278 279
302 302 301 301 301 301 301 300 299 298 297 295 294 293 292 290 287 284 281 276 268 267 267 267 269 273 276 277 277 278 278 279 279 279 277 276 276 276 275 276 276 276 276 276 276 276 277 280 280 281 282 283 284 285
303 303 304 304 303 302 301 301 300 299 299 298 297 296 295 293 291 288 284 280 272 264 267 270 272 278 283 286 287 287 287 285 284 281 280 278 278 278 277 277 278 281 283 284 284 284 284 284 284 284 284 283 283 283
304 305 305 305 305 304 303 303 303 302 301 301 302 302 302 299 296 290 288 286 281 272 267 270 274 283 287 286 286 287 288 287 289 290 290 290 292 296 297 296 295 294 293 293 292 290 291 290 289 289 289 289 289 289
307 308 308 307 305 305 306 305 306 309 313 318 323 328 333 344 350 353 351 349 342 337 314 307 300 298 298 304 309 311 311 312 312 312 310 312 314 313 313 312 308 305 302 301 300 299 300 300 298 297 297 297 297 297
310 309 307 308 308 309 312 318 329 343 3 28 32 46 57 59 61 62 64 74 61 34 22 25 34 18 6 6 1 355 354 357 354 351 351 350 344 336 332 328 325 322 319 315 311 309 310 311 312 313 314 314 315 314
311 313 314 316 322 337 357 13 36 47 65 68 64 69 71 69 72 69 65 65 68 63 66 64 56 52 48 39 33 27 21 18 14 12 4 358 355 353 351 349 342 335 333 334 329 322 320 320 321 320 318 318 318 317
325 331 341 2 24 49 60 60 69 78 81 76 70 69 72 71 70 74 75 74 74 66 61 59 55 52 50 47 44 39 37 34 29 25 16 11 7 1 359 358 356 352 348 346 345 336 325 323 326 327 325 327 326 326
19 45 59 59 70 80 85 89 84 79 75 73 73 71 74 77 77 71 68 64 60 57 57 56 55 54 54 53 51 49 47 42 39 33 28 22 19 13 6 5 3 360 356 354 353 350 343 336 334 334 334 335 335 335
73 81 87 89 89 88 83 78 76 74 75 75 78 80 82 77 71 67 62 58 57 54 54 55 53 52 51 49 47 45 43 40 38 34 31 26 22 18 14 10 7 6 5 2 359 357 354 348 343 337 336 338 340 343
95 93 90 87 82 79 79 83 84 86 85 84 87 81 72 68 67 63 59 55 52 50 49 50 51 50 49 46 44 43 40 38 35 33 30 27 23 20 18 16 12 10 9 7 5 3 0 358 355 350 342 338 340 341
93 90 87 87 89 87 85 82 83 89 96 89 77 71 67 65 63 60 57 56 53 49 47 45 45 46 44 45 40 41 38 34 32 29 27 25 24 22 20 18 17 15 13 11 10 8 7 4 2 1 356 350 342 338
91 90 87 86 85 85 84 84 87 91 82 69 66 65 65 62 60 56 52 49 47 43 37 36 39 41 39 38 34 34 33 30 29 27 25 23 22 21 20 19 19 18 17 15 14 13 11 9 8 7 3 359 356 350
90 88 90 86 82 78 76 78 82 78 67 63 64 63 61 58 56 53 49 45 42 38 31 27 31 34 33 32 30 30 27 25 24 23 23 22 20 20 20 19 18 18 18 18 17 16 15 14 13 11 8 4 2 359
90 87 85 80 79 76 74 73 73 64 61 61 60 58 55 53 50 47 43 40 35 31 27 25 28 29 24 25 23 23 22 22 20 18 18 18 19 19 19 19 19 18 18 18 18 18 18 17 16 14 12 9 6 2
89 85 82 76 73 75 74 66 61 61 58 57 55 53 50 46 43 39 35 33 29 25 23 22 23 25 24 22 20 19 17 14 14 14 14 15 16 16 17 18 18 19 19 19 19 19 19 19 19 17 16 15 12 7
90 84 81 79 73 69 64 62 55 56 52 50 48 45 41 38 35 31 28 26 22 19 15 16 18 17 18 17 16 15 15 13 10 9 10 10 12 14 15 16 17 18 19 20 20 20 19 19 20 20 18 18 16 15
88 81 73 69 65 60 59 56 52 49 45 43 41 39 36 32 29 26 24 19 15 11 10 12 12 12 11 9 9 9 9 11 11 10 7 7 8 10 12 14 15 16 18 19 20 21 21 20 20 20 20 20 19 18
79 74 71 66 59 55 54 50 45 42 39 38 38 35 32 27 24 21 18 14 12 10 11 11 10 9 10 10 8 6 5 6 7 8 9 8 6 8 9 11 14 15 15 17 18 20 21 22 22 21 21 21 21 21
75 69 62 56 52 51 49 44 40 38 36 34 31 27 25 22 19 19 15 14 12 11 11 11 12 11 11 11 8 8 7 6 5 5 5 7 8 6 7 8 10 12 14 16 17 18 19 20 21 22 22 22 22 22
68 61 55 51 48 46 42 39 38 36 32 28 25 23 22 20 20 18 20 18 16 14 11 8 7 8 8 8 8 7 6 6 7 6 4 4 5 7 7 6 7 9 11 13 15 17 17 19 20 21 22 23 23 23
62 55 48 47 43 40 38 35 34 30 27 26 25 23 22 21 20 21 20 18 16 13 10 9 9 7 4 4 3 3 4 5 5 5 4 3 3 4 7 7 6 6 7 10 12 14 16 17 18 20 21 22 24 24
56 49 45 44 39 35 34 31 28 27 25 23 22 21 19 19 19 20 19 18 16 12 11 10 7 8 8 5 4 3 2 0 1 2 2 3 2 1 4 6 7 6 6 6 8 11 14 15 16 18 20 21 22 24
51 45 42 39 35 33 30 27 26 24 22 22 21 20 18 18 17 17 16 14 12 12 11 9 8 8 8 8 6 5 6 5 1 359 359 1 2 2 1 4 6 6 7 7 6 6 9 13 14 15 17 18 20 22
46 41 38 34 32 30 26 24 23 21 21 21 20 19 17 17 16 15 14 13 12 11 11 9 7 5 7 9 7 4 4 4 5 4 359 1 3 3 3 1 2 4 6 8 9 8 8 10 12 14 15 16 18 20
40 36 33 31 29 25 20 19 19 19 18 18 17 17 16 15 13 11 9 8 9 9 8 7 6 5 4 3 5 6 6 4 3 5 4 2 3 3 5 5 1 2 3 5 7 9 10 11 12 12 14 15 16 17
36 33 31 27 22 18 16 17 15 12 12 12 12 13 13 12 11 10 9 8 7 6 6 6 7 7 7 3 0 5 6 6 6 4 3 3 4 4 3 5 5 3 3 4 5 6 8 10 11 12 13 14 15 16
31 28 24 19 16 14 12 10 7 8 8 5 6 8 7 9 9 8 7 5 6 7 5 5 6 5 4 5 6 4 3 4 3 3 3 3 2 1 2 4 4 3 3 4 5 4 5 6 8 10 11 12 13 14
26 21 16 14 11 8 5 3 2 2 2 2 2 4 5 5 7 6 5 3 3 5 5 4 3 3 1 2 4 5 5 6 5 4 3 2 2 2 1 2 3 3 1 0 2 3 4 5 5 7 8 9 10 11
18 14 11 7 4 0 357 356 358 357 357 0 1 4 3 3 4 3 3 3 3 3 2 3 2 1 1 2 2 3 3 5 6 4 6 5 4 4 4 4 5 6 5 3 3 4 4 4 4 4 4 5 6 7
11 7 2 358 355 352 354 356 358 357 358 359 1 1 0 360 1 1 1 2 2 1 0 1 360 359 359 359 1 4 3 3 3 5 9 11 11 10 10 9 7 8 8 8 8 7 7 7 7 7 7 7 6 6
Height
5612 5606 5599 5592 5586 5580 5575 5571 5566 5561 5557 5552 5547 5542 5537 5532 5527 5523 5518 5515 5511 5504 5499 5497 5495 5493 5491 5488 5485 5483 5481 5478 5475 5472 5469 5466 5462 5459 5456 5453 5451 5449 5445 5441 5435 5427 5422 5420 5416 5415 5406 5400 5395 5392
5598 5592 5585 5579 5573 5568 5562 5557 5552 5547 5542 5536 5531 5526 5521 5515 5510 5505 5501 5498 5495 5491 5486 5483 5481 5478 5476 5474 5471 5468 5465 5462 5459 5457 5454 5451 5447 5443 5440 5437 5433 5429 5427 5422 5418 5411 5404 5398 5394 5389 5383 5378 5372 5367
5585 5579 5573 5567 5561 5555 5549 5543 5537 5531 5525 5519 5512 5506 5500 5494 5489 5485 5481 5479 5478 5477 5474 5469 5466 5463 5460 5458 5456 5454 5450 5447 5444 5442 5439 5436 5431 5428 5424 5419 5415 5410 5406 5402 5398 5393 5388 5377 5371 5366 5360 5354 5348 5342
5574 5568 5562 5555 5548 5541 5534 5527 5520 5513 5506 5499 5491 5485 5478 5472 5468 5465 5462 5460 5461 5461 5458 5456 5453 5450 5447 5445 5442 5440 5437 5434 5432 5429 5426 5422 5418 5414 5408 5404 5400 5395 5390 5385 5379 5373 5371 5359 5350 5345 5342 5334 5328 5321
5562 5556 5549 5541 5534 5526 5517 5509 5501 5494 5487 5480 5473 5467 5461 5457 5453 5450 5447 5445 5445 5448 5445 5444 5441 5439 5437 5434 5432 5429 5426 5423 5421 5418 5414 5411 5405 5401 5395 5390 5385 5379 5374 5369 5364 5356 5351 5346 5335 5328 5323 5315 5306 5299
5550 5543 5534 5525 5517 5508 5500 5493 5486 5479 5472 5465 5459 5453 5448 5444 5441 5438 5436 5435 5434 5434 5435 5435 5432 5430 5428 5425 5423 5419 5416 5411 5408 5404 5401 5396 5394 5390 5385 5379 5374 5368 5360 5351 5347 5340 5332 5325 5317 5306 5300 5293 5285 5276
5535 5526 5518 5510 5503 5496 5488 5482 5475 5468 5461 5455 5451 5446 5442 5438 5436 5434 5433 5431 5431 5430 5429 5428 5426 5424 5422 5418 5415 5412 5408 5405 5401 5397 5393 5390 5386 5382 5375 5370 5363 5356 5348 5340 5331 5325 5318 5306 5299 5290 5281 5273 5264 5254
5519 5512 5506 5500 5493 5487 5481 5475 5469 5464 5460 5456 5452 5449 5445 5441 5440 5437 5435 5434 5433 5431 5430 5428 5426 5424 5420 5417 5414 5409 5405 5400 5396 5392 5389 5384 5381 5375 5369 5362 5354 5346 5338 5328 5319 5309 5301 5293 5285 5276 5267 5259 5250 5241
5509 5504 5498 5493 5488 5483 5479 5474 5471 5468 5465 5461 5458 5453 5449 5449 5448 5444 5442 5440 5439 5443 5435 5430 5429 5426 5420 5417 5413 5410 5406 5401 5397 5392 5388 5384 5377 5371 5364 5356 5348 5339 5329 5320 5310 5300 5292 5284 5276 5266 5258 5249 5240 5232
5504 5500 5496 5492 5488 5485 5482 5480 5479 5475 5471 5467 5466 5465 5462 5459 5457 5456 5455 5452 5450 5445 5438 5436 5433 5430 5427 5423 5419 5416 5411 5404 5400 5394 5389 5382 5376 5369 5360 5351 5342 5332 5321 5311 5302 5294 5286 5278 5269 5260 5250 5241 5231 5223
5505 5502 5499 5496 5494 5492 5491 5489 5487 5484 5478 5476 5478 5477 5473 5470 5471 5468 5464 5460 5455 5451 5447 5445 5442 5439 5435 5431 5427 5422 5416 5409 5402 5398 5391 5382 5374 5366 5359 5349 5339 5329 5318 5306 5295 5284 5275 5267 5260 5252 5243 5233 5224 5215
5510 5508 5507 5505 5504 5503 5501 5498 5496 5491 5488 5492 5490 5489 5486 5482 5478 5475 5470 5465 5462 5459 5457 5454 5450 5446 5441 5436 5430 5424 5418 5412 5406 5400 5392 5385 5377 5369 5359 5349 5339 5328 5316 5305 5293 5283 5272 5262 5253 5245 5236 5228 5218 5209
5520 5520 5518 5516 5514 5513 5512 5511 5506 5499 5503 5503 5502 5498 5492 5487 5485 5481 5478 5474 5470 5469 5466 5462 5458 5453 5446 5440 5434 5426 5422 5417 5410 5403 5394 5386 5377 5367 5358 5349 5338 5326 5315 5304 5293 5281 5270 5259 5249 5240 5231 5222 5213 5205
5531 5530 5528 5526 5526 5525 5521 5518 5515 5512 5516 5514 5510 5504 5499 5495 5492 5489 5487 5484 5481 5477 5474 5470 5465 5458 5450 5442 5438 5430 5426 5419 5411 5404 5395 5388 5379 5370 5360 5350 5339 5329 5317 5306 5294 5282 5271 5259 5248 5238 5227 5217 5209 5201
5541 5540 5541 5539 5537 5535 5532 5527 5526 5530 5527 5519 5515 5510 5506 5504 5501 5498 5495 5491 5487 5484 5481 5477 5469 5460 5452 5444 5439 5432 5427 5422 5414 5406 5399 5390 5382 5372 5363 5353 5343 5332 5321 5309 5297 5284 5272 5259 5247 5235 5224 5214 5205 5195
5554 5555 5554 5550 5546 5544 5542 5541 5542 5541 5531 5524 5519 5518 5515 5513 5509 5506 5502 5498 5494 5490 5485 5479 5469 5459 5454 5448 5444 5436 5431 5423 5417 5410 5402 5394 5385 5376 5366 5356 5345 5333 5322 5311 5299 5286 5274 5261 5248 5236 5224 5213 5202 5191
5568 5567 5565 5559 5554 5554 5554 5555 5555 5541 5535 5532 5528 5526 5523 5520 5516 5512 5507 5502 5497 5492 5486 5479 5470 5463 5458 5451 5445 5439 5433 5427 5420 5413 5405 5397 5388 5379 5369 5358 5348 5337 5326 5314 5301 5288 5275 5262 5250 5238 5226 5214 5201 5190
5579 5578 5573 5568 5566 5564 5564 5567 5555 5547 5544 5540 5538 5534 5530 5526 5522 5517 5512 5507 5503 5496 5491 5484 5477 5469 5462 5456 5449 5442 5435 5427 5421 5414 5406 5398 5390 5380 5371 5361 5350 5340 5329 5316 5304 5292 5280 5268 5255 5243 5230 5217 5204 5193
5589 5588 5582 5578 5574 5574 5575 5565 5563 5555 5552 5549 5545 5541 5536 5532 5527 5522 5517 5512 5505 5499 5494 5486 5477 5471 5465 5458 5452 5445 5438 5430 5422 5414 5407 5399 5391 5383 5374 5364 5354 5343 5332 5321 5309 5297 5285 5272 5260 5247 5234 5220 5209 5196
5596 5594 5590 5585 5584 5582 5578 5571 5568 5563 5560 5557 5551 5546 5541 5536 5531 5526 5520 5514 5507 5502 5495 5486 5479 5472 5465 5458 5452 5445 5438 5432 5425 5416 5407 5400 5392 5384 5376 5367 5358 5347 5336 5325 5314 5302 5290 5277 5264 5252 5239 5227 5214 5200
5603 5601 5598 5594 5592 5589 5583 5577 5574 5571 5567 5562 5556 5551 5546 5541 5535 5529 5523 5517 5511 5504 5496 5487 5480 5473 5466 5459 5452 5445 5438 5431 5424 5416 5409 5401 5394 5386 5377 5368 5359 5350 5340 5330 5318 5307 5295 5284 5271 5258 5247 5233 5219 5204
5611 5608 5605 5603 5600 5593 5587 5585 5581 5576 5572 5566 5561 5555 5550 5544 5538 5533 5527 5519 5512 5503 5496 5489 5483 5475 5468 5461 5453 5446 5438 5430 5423 5416 5408 5401 5394 5385 5377 5369 5361 5352 5343 5333 5323 5312 5301 5290 5278 5265 5252 5239 5225 5213
5617 5614 5614 5610 5604 5598 5595 5591 5587 5582 5577 5571 5566 5560 5554 5548 5542 5536 5527 5520 5513 5505 5498 5489 5482 5476 5469 5462 5454 5446 5439 5431 5424 5416 5408 5400 5393 5386 5378 5370 5362 5354 5345 5336 5326 5316 5306 5295 5283 5272 5260 5247 5234 5222
5624 5623 5619 5612 5608 5605 5601 5597 5592 5586 5581 5576 5570 5564 5558 5552 5546 5537 5529 5522 5514 5506 5498 5491 5484 5476 5468 5460 5454 5447 5439 5432 5424 5417 5409 5401 5393 5386 5378 5371 5363 5355 5346 5338 5329 5320 5311 5301 5290 5279 5268 5257 5245 5232
5632 5628 5623 5618 5614 5610 5606 5601 5596 5591 5585 5580 5573 5567 5561 5555 5547 5538 5531 5523 5516 5509 5501 5493 5483 5476 5469 5461 5452 5445 5438 5431 5424 5417 5410 5402 5394 5387 5379 5371 5364 5356 5348 5339 5332 5323 5315 5306 5296 5286 5276 5265 5254 5243
5635 5631 5627 5623 5620 5615 5610 5605 5600 5595 5590 5584 5576 5570 5564 5555 5547 5539 5531 5524 5517 5509 5501 5493 5485 5478 5469 5461 5454 5446 5439 5431 5423 5416 5409 5401 5395 5388 5380 5373 5366 5358 5350 5343 5335 5327 5319 5310 5301 5292 5282 5272 5261 5250
5639 5634 5631 5627 5623 5619 5614 5610 5605 5599 5593 5586 5579 5573 5565 5556 5549 5542 5534 5527 5519 5510 5501 5493 5485 5477 5470 5463 5454 5446 5438 5430 5422 5416 5408 5402 5396 5388 5381 5374 5367 5360 5352 5345 5338 5330 5322 5314 5305 5297 5288 5279 5270 5260
5642 5639 5635 5632 5627 5623 5619 5613 5608 5601 5594 5588 5581 5573 5566 5557 5551 5543 5536 5529 5521 5513 5504 5496 5488 5479 5470 5462 5455 5448 5440 5431 5423 5415 5407 5400 5393 5387 5381 5374 5367 5361 5354 5348 5340 5332 5324 5317 5309 5301 5293 5285 5276 5266
5647 5643 5639 5636 5631 5626 5622 5615 5609 5602 5596 5589 5582 5575 5568 5562 5555 5548 5540 5531 5523 5514 5506 5499 5490 5481 5473 5463 5453 5447 5440 5433 5426 5418 5409 5402 5395 5388 5381 5374 5367 5360 5354 5347 5340 5334 5327 5320 5313 5305 5297 5289 5281 5272
5651 5646 5642 5639 5634 5629 5623 5617 5610 5604 5598 5591 5584 5577 5570 5563 5556 5548 5540 5532 5524 5516 5506 5497 5489 5481 5473 5467 5458 5449 5440 5433 5425 5417 5410 5403 5396 5388 5381 5374 5368 5361 5354 5347 5341 5335 5328 5321 5314 5307 5299 5292 5284 5276
5653 5650 5646 5641 5636 5631 5625 5619 5613 5606 5600 5593 5586 5579 5571 5564 5557 5550 5541 5532 5524 5515 5507 5499 5490 5482 5474 5467 5459 5452 5444 5435 5426 5418 5410 5403 5396 5389 5382 5375 5368 5362 5355 5348 5342 5336 5329 5323 5316 5309 5302 5295 5288 5280
5656 5652 5647 5643 5638 5633 5627 5621 5614 5607 5600 5594 5587 5579 5571 5565 5557 5549 5542 5533 5525 5516 5508 5499 5490 5483 5475 5466 5457 5448 5440 5433 5426 5419 5411 5404 5396 5389 5382 5375 5369 5363 5357 5350 5344 5338 5331 5325 5318 5312 5305 5298 5291 5284
5658 5654 5651 5647 5641 5635 5628 5622 5615 5608 5600 5593 5586 5579 5572 5564 5557 5550 5542 5533 5525 5517 5508 5499 5491 5482 5474 5467 5459 5451 5443 5434 5426 5419 5412 5405 5398 5392 5385 5378 5371 5365 5359 5352 5346 5340 5334 5327 5320 5314 5307 5300 5293 5286